[[[{"header":{"parameterUnit":"kt","parameterCategory":2,"dx":1,"dy":1,"la1":30.253999710083008,"la2":30.299108505249023,"lo1":-89.0895004272461,"lo2":-89.04439544677734,"nx":28,"ny":28,"refTime":"2022-09-27T15:00:00:Z","depth":0,"parameterNumber":1,"parameterNumberName":"U-component_of_WINDS"},"data":[-6.9826,-6.991,-6.9897,-6.9985,-6.9988,-7.0046,-7.0062,-7.0082,-7.0093,-7.016,-7.0195,-7.0189,-7.0194,-7.0232,-7.0269,-7.0265,-7.0282,-7.0322,-7.031,-7.0145,-7.0121,-7.0099,-7.0078,-7.0325,-7.0326,-7.0483,-7.0484,-7.0486,-6.9707,-6.9711,-6.9755,-6.9787,-6.9823,-6.9777,-6.9799,-6.9832,-6.9884,-6.9899,-6.9933,-6.999,-7.0033,-7.0023,-7.0062,-7.0099,-7.0079,-7.0111,-7.0108,-7.0109,-6.9932,-6.9911,-7.0126,-7.0126,-7.0126,-7.0126,-7.0126,-7.0126,-6.9487,-6.9538,-6.955,-6.9596,-6.9608,-6.963,-6.9675,-6.9666,-6.9707,-6.9746,-6.9721,-6.9779,-6.979,-6.9828,-6.9837,-6.9882,-6.9844,-6.9874,-6.9881,-6.9889,-6.9901,-6.9677,-6.9887,-6.9887,-6.9886,-6.9885,-6.9885,0,-6.9322,-6.9307,-6.9347,-6.9384,-6.9416,-6.9443,-6.9464,-6.9492,-6.9453,-6.9489,-6.9538,-6.9564,-6.9615,-6.9659,-6.9691,-6.9693,-6.9648,-6.9641,-6.9661,-6.9675,-6.9684,-6.9681,-6.9394,-6.9635,-6.9633,-6.9631,-6.963,-6.9629,-6.91,-6.916,-6.9165,-6.9195,-6.9203,-6.9252,-6.9277,-6.9239,-6.9268,-6.9288,-6.9334,-6.9377,-6.941,-6.9491,-6.9478,-6.9516,-6.9494,-6.9587,-6.9499,-6.951,-6.9496,-6.9493,-6.9499,-6.9606,-6.9609,-6.9611,-6.9613,0,-6.8976,-6.8952,-6.9041,-6.9039,-6.904,-6.9105,-6.9103,-6.9151,-6.9136,-6.92,-6.9213,-6.919,-6.9238,-6.921,-6.9259,-6.9243,-6.9349,-6.9326,-6.9345,-6.9339,-6.942,-6.9413,-6.9689,-6.9723,-6.9466,-6.9468,-6.947,0,-6.8777,-6.8857,-6.8817,-6.887,-6.8958,-6.8917,-6.9004,-6.9,-6.9009,-6.9059,-6.9002,-6.905,-6.9006,-6.905,-6.9025,-6.9106,-6.9115,-6.9108,-6.91,-6.9113,-6.9114,-6.9128,-6.9116,-6.9081,-6.9079,-6.9078,-6.9077,0,-6.8586,-6.8658,-6.8743,-6.8756,-6.8761,-6.8802,-6.8806,-6.8814,-6.884,-6.8867,-6.8883,-6.8918,-6.8938,-6.8966,-6.8935,-6.8876,-6.9033,-6.8945,-6.9025,-6.9026,-6.9061,-6.906,-6.931,-6.9075,-6.9075,-6.9074,-6.9074,0,-6.8421,-6.8452,-6.8579,-6.8581,-6.8602,-6.8657,-6.869,-6.8731,-6.8744,-6.8732,-6.8754,-6.8712,-6.878,-6.8696,-6.8788,-6.8721,-6.8743,-6.8741,-6.8747,-6.8751,-6.8657,-6.8803,-6.9044,-6.9069,-6.8755,-6.8753,-6.875,0,-6.821,-6.8331,-6.8297,-6.8418,-6.847,-6.8403,-6.8463,-6.8477,-6.8466,-6.8508,-6.8495,-6.8543,-6.8474,-6.8485,-6.8535,-6.8524,-6.8612,-6.8511,-6.8571,-6.8574,-6.8571,-6.8792,-6.8835,-6.8995,-6.8716,-6.8719,-6.8722,0,-6.8042,-6.8048,-6.8072,-6.8085,-6.8096,-6.8139,-6.8209,-6.8247,-6.8277,-6.8297,-6.8355,-6.842,-6.8371,-6.8389,-6.8359,-6.8412,-6.8551,-6.8352,-6.8351,-6.8389,-6.8696,-6.8737,-6.8764,-6.8519,-6.8523,-6.8526,-6.8695,0,-6.7801,-6.7858,-6.7921,-6.795,-6.7979,-6.8052,-6.8022,-6.8056,-6.8024,-6.8011,-6.8094,-6.8096,-6.8135,-6.8157,-6.8126,-6.8257,-6.8231,-6.8177,-6.8093,-6.8238,-6.8293,-6.8315,-6.8014,-6.8011,-6.8009,-6.8007,0,0,-6.7604,-6.7685,-6.7645,-6.7711,-6.7733,-6.7661,-6.7743,-6.7755,-6.7782,-6.7798,-6.7751,-6.7844,-6.7848,-6.7952,-6.7995,-6.801,-6.8031,-6.7981,-6.8169,-6.8187,-6.8204,-6.8263,-6.8287,-6.8003,-6.8002,-6.8001,-6.8,0,-6.751,-6.7517,-6.7598,-6.7609,-6.7624,-6.7606,-6.7626,-6.7627,-6.7623,-6.7704,-6.7643,-6.7689,-6.7765,-6.7777,-6.7793,-6.7968,-6.7919,-6.7982,-6.8086,-6.8147,-6.8168,-6.8187,-6.825,-6.8273,-6.7995,-6.7995,-6.7995,0,-6.734,-6.7342,-6.7378,-6.7423,-6.7432,-6.7486,-6.7391,-6.7452,-6.7492,-6.741,-6.7491,-6.7489,-6.7502,-6.7604,-6.7649,-6.7607,-6.782,-6.7747,-6.776,-6.7764,-6.7822,-6.7847,-6.787,-6.757,-6.7569,-6.7568,0,0,-6.7262,-6.7315,-6.7304,-6.74,-6.741,-6.7385,-6.741,-6.7381,-6.7395,-6.7401,-6.7396,-6.7411,-6.7454,-6.7484,-6.7523,-6.7639,-6.7639,-6.7696,-6.7716,-6.7732,-6.7746,-6.7807,-6.7833,-6.7563,-6.7563,-6.7562,0,0,-6.7225,-6.7216,-6.7182,-6.729,-6.7306,-6.7301,-6.7361,-6.7318,-6.735,-6.7338,-6.729,-6.7292,-6.7387,-6.7386,-6.7322,-6.7492,-6.7409,-6.7424,-6.7489,-6.7514,-6.7534,-6.7532,-6.7223,0,0,0,0,0,-6.7113,-6.7217,-6.7186,-6.72,-6.7256,-6.7318,-6.7325,-6.7289,-6.7231,-6.7279,-6.7268,-6.7214,-6.7342,-6.7283,-6.7297,-6.7369,-6.7497,-6.7509,-6.752,-6.7631,-6.7658,-6.768,0,0,0,0,0,0,-6.7117,-6.7134,-6.7183,-6.7183,-6.7195,-6.7314,-6.7208,-6.7201,-6.7225,-6.7213,-6.7218,-6.7214,-6.7184,-6.7274,-6.7287,-6.7356,-6.7219,-6.7502,-6.7512,-6.752,-6.764,-6.7662,-6.768,0,0,0,0,0,-6.7121,-6.7135,-6.7235,-6.7181,-6.7192,-6.7169,-6.7204,-6.7197,-6.7215,-6.7198,-6.7192,-6.7185,-6.7187,-6.7195,-6.7281,-6.7351,-6.7209,-6.7214,-6.7508,-6.7516,-6.7523,-6.7651,0,0,0,0,0,0,-6.7124,-6.7129,-6.7236,-6.7238,-6.7139,-6.7161,-6.7163,-6.7194,-6.7197,-6.7193,-6.7162,-6.7153,-6.719,-6.7196,-6.7203,-6.7352,-6.7202,-6.7207,-6.721,-6.7514,-6.752,-6.7526,0,0,0,0,0,0,-6.7121,-6.7131,-6.7237,-6.7186,-6.7181,-6.7155,-6.7157,-6.7224,-6.7198,-6.716,-6.7153,-6.7158,-6.718,-6.7197,-6.7202,-6.7309,-6.7196,-6.7201,-6.7204,-6.7206,-6.7519,-6.7524,0,0,0,0,0,0,-6.7124,-6.7133,-6.7185,-6.7182,-6.7177,-6.7195,-6.7213,-6.7273,-6.7155,-6.7161,-6.7143,-6.7138,-6.7183,-6.7187,-6.7202,-6.7307,-6.7308,-6.7196,-6.72,-6.7202,-6.7203,0,0,0,0,0,0,0,-6.7127,-6.7081,-6.7225,-6.7178,-6.7174,-6.7255,-6.7256,-6.7256,-6.7154,-6.7149,-6.7144,-6.714,-6.7168,-6.7174,-6.7179,-6.7306,0,0,-6.7196,-6.7198,0,0,0,0,0,0,0,0,-6.7076,-6.708,-6.7225,-6.7226,-6.7226,-6.7255,-6.7256,-6.7256,-6.7153,-6.7149,-6.7145,-6.7142,-6.717,-6.7174,-6.7179,0,0,0,0,0,0,0,0,0,0,0,0,0,0,0,-6.7226,-6.7226,0,-6.7255,-6.7256,-6.7256,-6.7152,-6.7149,-6.7146,-6.7143,-6.7171,-6.7175,-6.7178,0,0,0,0,0,0,0,0,0,0,0,0,0,0,0,0,0,0,0,0,0,0,0,0,0,0,0,0,0,0,0,0,0,0,0,0,0,0,0,0,0,0,0,0,0,0,0,0,0,0,0,0,0,0,0,0,0,0,0,0,0,0,0,0,0,0,0,0,0]}],[{"header":{"parameterUnit":"kt","parameterCategory":2,"dx":1,"dy":1,"la1":30.253999710083008,"la2":30.299108505249023,"lo1":-89.0895004272461,"lo2":-89.04439544677734,"nx":28,"ny":28,"refTime":"2022-09-27T15:00:00:Z","depth":0,"parameterNumber":2,"parameterNumberName":"V-component_of_WINDS"},"data":[-11.5845,-11.5919,-11.5909,-11.5989,-11.5992,-11.6044,-11.6059,-11.6077,-11.6088,-11.6147,-11.6179,-11.6174,-11.6179,-11.6213,-11.6246,-11.6242,-11.6257,-11.6292,-11.6282,-11.6137,-11.6116,-11.6096,-11.6079,-11.6295,-11.6296,-11.6434,-11.6435,-11.6436,-11.5742,-11.5747,-11.5786,-11.5816,-11.5849,-11.581,-11.5829,-11.5859,-11.5906,-11.5919,-11.595,-11.6,-11.6038,-11.603,-11.6064,-11.6097,-11.6079,-11.6107,-11.6104,-11.6105,-11.595,-11.5932,-11.6121,-11.612,-11.612,-11.612,-11.612,-11.612,-11.5551,-11.5596,-11.5608,-11.565,-11.5662,-11.5682,-11.5722,-11.5715,-11.5751,-11.5786,-11.5764,-11.5816,-11.5826,-11.5859,-11.5867,-11.5906,-11.5873,-11.5899,-11.5905,-11.5912,-11.5923,-11.5727,-11.5911,-11.591,-11.591,-11.5909,-11.5909,0,-11.5408,-11.5397,-11.5432,-11.5466,-11.5495,-11.5519,-11.5538,-11.5563,-11.553,-11.5561,-11.5605,-11.5628,-11.5672,-11.5711,-11.5739,-11.5741,-11.5701,-11.5695,-11.5713,-11.5725,-11.5733,-11.5731,-11.5479,-11.5689,-11.5687,-11.5686,-11.5685,-11.5684,-11.5216,-11.5269,-11.5275,-11.5302,-11.531,-11.5353,-11.5376,-11.5343,-11.5369,-11.5386,-11.5426,-11.5465,-11.5494,-11.5564,-11.5552,-11.5585,-11.5565,-11.5648,-11.557,-11.558,-11.5568,-11.5565,-11.557,-11.5663,-11.5666,-11.5668,-11.567,0,-11.5109,-11.509,-11.5168,-11.5167,-11.5169,-11.5226,-11.5224,-11.5267,-11.5254,-11.531,-11.5321,-11.5301,-11.5343,-11.5318,-11.5361,-11.5346,-11.5438,-11.5418,-11.5435,-11.543,-11.5502,-11.5496,-11.5736,-11.5766,-11.5541,-11.5543,-11.5545,0,-11.4937,-11.5007,-11.4975,-11.5021,-11.5097,-11.5062,-11.5139,-11.5135,-11.5143,-11.5187,-11.5137,-11.5179,-11.514,-11.5178,-11.5156,-11.5227,-11.5234,-11.5227,-11.5221,-11.5232,-11.5234,-11.5245,-11.5235,-11.5203,-11.5202,-11.5201,-11.52,0,-11.4772,-11.4836,-11.491,-11.4921,-11.4927,-11.4963,-11.4966,-11.4974,-11.4996,-11.502,-11.5034,-11.5064,-11.5081,-11.5105,-11.5077,-11.5026,-11.5162,-11.5085,-11.5155,-11.5156,-11.5187,-11.5185,-11.5404,-11.5198,-11.5198,-11.5198,-11.5197,0,-11.463,-11.4657,-11.4768,-11.4771,-11.4789,-11.4837,-11.4866,-11.4901,-11.4913,-11.4902,-11.4921,-11.4884,-11.4943,-11.4869,-11.4949,-11.489,-11.4909,-11.4908,-11.4912,-11.4916,-11.4834,-11.4962,-11.5173,-11.5194,-11.492,-11.4917,-11.4915,0,-11.4447,-11.4553,-11.4524,-11.4629,-11.4674,-11.4616,-11.4669,-11.468,-11.4671,-11.4707,-11.4696,-11.4737,-11.4676,-11.4685,-11.4728,-11.4718,-11.4795,-11.4707,-11.4758,-11.4761,-11.4758,-11.4952,-11.499,-11.5129,-11.4885,-11.4888,-11.4891,0,-11.4302,-11.4309,-11.433,-11.4341,-11.435,-11.4387,-11.4448,-11.4481,-11.4507,-11.4524,-11.4574,-11.4629,-11.4586,-11.4601,-11.4574,-11.462,-11.4742,-11.4567,-11.4567,-11.46,-11.4867,-11.4904,-11.4927,-11.4713,-11.4717,-11.4719,-11.4867,0,-11.4094,-11.4144,-11.4199,-11.4224,-11.4249,-11.4312,-11.4286,-11.4315,-11.4287,-11.4275,-11.4347,-11.4347,-11.4379,-11.4398,-11.437,-11.4484,-11.4461,-11.4414,-11.434,-11.4467,-11.4515,-11.4534,-11.4271,-11.4268,-11.4266,-11.4265,0,0,-11.3924,-11.3994,-11.3959,-11.4017,-11.4035,-11.3973,-11.4044,-11.4054,-11.4076,-11.409,-11.4048,-11.4127,-11.4129,-11.4219,-11.4256,-11.4269,-11.4286,-11.4243,-11.4406,-11.4422,-11.4437,-11.4489,-11.4509,-11.4261,-11.426,-11.426,-11.4259,0,-11.3843,-11.3848,-11.3919,-11.3928,-11.3941,-11.3925,-11.3942,-11.3942,-11.3938,-11.4007,-11.3954,-11.3993,-11.4056,-11.4066,-11.4079,-11.4231,-11.4188,-11.4243,-11.4335,-11.4387,-11.4406,-11.4422,-11.4477,-11.4497,-11.4254,-11.4255,-11.4255,0,-11.3696,-11.3697,-11.3728,-11.3767,-11.3774,-11.3821,-11.3737,-11.379,-11.3825,-11.3751,-11.3821,-11.3818,-11.3827,-11.3915,-11.3953,-11.3916,-11.4101,-11.4037,-11.4048,-11.4052,-11.4101,-11.4124,-11.4144,-11.3882,-11.388,-11.3879,0,0,-11.3629,-11.3674,-11.3664,-11.3747,-11.3756,-11.3733,-11.3754,-11.3728,-11.3739,-11.3744,-11.3738,-11.375,-11.3786,-11.3811,-11.3843,-11.3943,-11.3942,-11.3992,-11.4009,-11.4024,-11.4035,-11.4089,-11.4111,-11.3875,-11.3875,-11.3875,0,0,-11.3596,-11.3589,-11.3558,-11.3651,-11.3665,-11.3659,-11.371,-11.3673,-11.3699,-11.3689,-11.3645,-11.3646,-11.3728,-11.3726,-11.367,-11.3816,-11.3743,-11.3756,-11.3815,-11.3836,-11.3854,-11.3852,-11.3583,0,0,0,0,0,-11.3499,-11.359,-11.3562,-11.3574,-11.3621,-11.3675,-11.368,-11.3647,-11.3597,-11.3639,-11.3628,-11.358,-11.3687,-11.3636,-11.3648,-11.371,-11.3818,-11.3828,-11.3837,-11.3936,-11.3959,-11.3979,0,0,0,0,0,0,-11.3503,-11.3518,-11.356,-11.3559,-11.3569,-11.3671,-11.3578,-11.3572,-11.3592,-11.3582,-11.3583,-11.358,-11.3552,-11.3628,-11.3639,-11.3699,-11.3579,-11.3822,-11.383,-11.3838,-11.3944,-11.3963,-11.3979,0,0,0,0,0,-11.3507,-11.3518,-11.3603,-11.3557,-11.3566,-11.3544,-11.3575,-11.3568,-11.3583,-11.3566,-11.3561,-11.3557,-11.3554,-11.3561,-11.3634,-11.3695,-11.3571,-11.3575,-11.3827,-11.3834,-11.384,-11.3953,0,0,0,0,0,0,-11.3509,-11.3512,-11.3604,-11.3605,-11.352,-11.3538,-11.3539,-11.3566,-11.3565,-11.3561,-11.3537,-11.3529,-11.3557,-11.3562,-11.3567,-11.3696,-11.3565,-11.3569,-11.3572,-11.3832,-11.3838,-11.3842,0,0,0,0,0,0,-11.3506,-11.3514,-11.3605,-11.356,-11.3556,-11.3532,-11.3534,-11.359,-11.3566,-11.3536,-11.3529,-11.3533,-11.3548,-11.3563,-11.3567,-11.3657,-11.356,-11.3564,-11.3567,-11.3569,-11.3837,-11.3841,0,0,0,0,0,0,-11.3509,-11.3516,-11.3559,-11.3557,-11.3553,-11.3566,-11.3581,-11.3631,-11.353,-11.3537,-11.352,-11.3515,-11.3551,-11.3554,-11.3567,-11.3656,-11.3657,-11.356,-11.3563,-11.3565,-11.3566,0,0,0,0,0,0,0,-11.3511,-11.3472,-11.3596,-11.3553,-11.355,-11.3619,-11.3619,-11.3619,-11.3529,-11.3525,-11.3521,-11.3517,-11.3537,-11.3541,-11.3546,-11.3655,0,0,-11.356,-11.3562,0,0,0,0,0,0,0,0,-11.3469,-11.3471,-11.3596,-11.3596,-11.3596,-11.3619,-11.3619,-11.3619,-11.3528,-11.3525,-11.3521,-11.3518,-11.3538,-11.3542,-11.3545,0,0,0,0,0,0,0,0,0,0,0,0,0,0,0,-11.3596,-11.3596,0,-11.3619,-11.3619,-11.3619,-11.3528,-11.3525,-11.3522,-11.352,-11.3539,-11.3542,-11.3545,0,0,0,0,0,0,0,0,0,0,0,0,0,0,0,0,0,0,0,0,0,0,0,0,0,0,0,0,0,0,0,0,0,0,0,0,0,0,0,0,0,0,0,0,0,0,0,0,0,0,0,0,0,0,0,0,0,0,0,0,0,0,0,0,0,0,0,0,0]}]]]